Saint Bonnet de Bellac- Haute Vienne - France
Donnes mto: lundi, 23/07/2012
Date Horaire Temp. E. Hum. E. P.atmo. Pluie Vent Direction Direction Ensoleilleme Solaire P. de rose Temp au vent Rafales
23/07/2012 00:00 15,6 C 68 % 1023,7 hPa 0,0 mm 0,4 km/h (0 Bft) NE 45 0 min 0 W/m 9,7 C 15,6 C 4,3 km/h (1 Bft)
23/07/2012 00:10 15,5 C 69 % 1023,7 hPa 0,0 mm 2,5 km/h (1 Bft) N 360 0 min 0 W/m 9,8 C 15,5 C 3,6 km/h (1 Bft)
23/07/2012 00:20 15,4 C 69 % 1023,7 hPa 0,0 mm 0,4 km/h (0 Bft) N 360 0 min 0 W/m 9,7 C 15,4 C 3,2 km/h (1 Bft)
23/07/2012 00:30 15,3 C 69 % 1023,7 hPa 0,0 mm 0,7 km/h (0 Bft) NE 45 0 min 0 W/m 9,6 C 15,3 C 3,6 km/h (1 Bft)
23/07/2012 00:40 15,2 C 70 % 1023,6 hPa 0,0 mm 1,4 km/h (1 Bft) N-NE 22 0 min 0 W/m 9,8 C 15,2 C 8,3 km/h (2 Bft)
23/07/2012 00:50 15,2 C 70 % 1023,5 hPa 0,0 mm 0,7 km/h (0 Bft) N 360 0 min 0 W/m 9,8 C 15,2 C 4,3 km/h (1 Bft)
23/07/2012 01:00 15,1 C 70 % 1023,6 hPa 0,0 mm 0,0 km/h (0 Bft) NE 45 0 min 0 W/m 9,7 C 15,1 C 0,0 km/h (0 Bft)
23/07/2012 01:10 14,6 C 71 % 1023,6 hPa 0,0 mm 0,0 km/h (0 Bft) N-NE 22 0 min 0 W/m 9,4 C 14,6 C 0,0 km/h (0 Bft)
23/07/2012 01:20 14,1 C 72 % 1023,6 hPa 0,0 mm 0,0 km/h (0 Bft) N-NE 22 0 min 0 W/m 9,1 C 14,1 C 0,0 km/h (0 Bft)
23/07/2012 01:30 13,8 C 73 % 1023,6 hPa 0,0 mm 0,0 km/h (0 Bft) NE 45 0 min 0 W/m 9,0 C 13,8 C 0,0 km/h (0 Bft)
23/07/2012 01:40 13,4 C 73 % 1023,5 hPa 0,0 mm 0,0 km/h (0 Bft) NE 45 0 min 0 W/m 8,7 C 13,4 C 0,0 km/h (0 Bft)
23/07/2012 01:50 13,1 C 74 % 1023,6 hPa 0,0 mm 0,0 km/h (0 Bft) NE 45 0 min 0 W/m 8,6 C 13,1 C 0,0 km/h (0 Bft)
23/07/2012 02:00 12,8 C 75 % 1023,5 hPa 0,0 mm 0,0 km/h (0 Bft) NE 45 0 min 0 W/m 8,5 C 12,8 C 0,0 km/h (0 Bft)
23/07/2012 02:10 12,4 C 76 % 1023,4 hPa 0,0 mm 0,0 km/h (0 Bft) NE 45 0 min 0 W/m 8,3 C 12,4 C 0,0 km/h (0 Bft)
23/07/2012 02:20 12,3 C 76 % 1023,4 hPa 0,0 mm 0,0 km/h (0 Bft) N-NE 22 0 min 0 W/m 8,2 C 12,3 C 0,0 km/h (0 Bft)
23/07/2012 02:30 12,1 C 76 % 1023,3 hPa 0,0 mm 0,0 km/h (0 Bft) N-NE 22 0 min 0 W/m 8,0 C 12,1 C 0,0 km/h (0 Bft)
23/07/2012 02:40 11,9 C 77 % 1023,3 hPa 0,0 mm 0,0 km/h (0 Bft) N-NE 22 0 min 0 W/m 8,0 C 11,9 C 0,0 km/h (0 Bft)
23/07/2012 02:50 11,8 C 77 % 1023,3 hPa 0,0 mm 0,0 km/h (0 Bft) N-NE 22 0 min 0 W/m 7,9 C 11,8 C 0,0 km/h (0 Bft)
23/07/2012 03:02 11,5 C 78 % 1023,2 hPa 0,0 mm 0,0 km/h (0 Bft) N-NE 22 0 min 0 W/m 7,8 C 11,5 C 0,0 km/h (0 Bft)
23/07/2012 03:10 11,3 C 78 % 1023,1 hPa 0,0 mm 0,0 km/h (0 Bft) N-NE 22 0 min 0 W/m 7,6 C 11,3 C 0,0 km/h (0 Bft)
23/07/2012 03:20 11,1 C 79 % 1022,9 hPa 0,0 mm 0,0 km/h (0 Bft) N-NE 22 0 min 0 W/m 7,6 C 11,1 C 0,0 km/h (0 Bft)
23/07/2012 03:30 11,1 C 79 % 1022,8 hPa 0,0 mm 0,0 km/h (0 Bft) N-NE 22 0 min 0 W/m 7,6 C 11,1 C 0,0 km/h (0 Bft)
23/07/2012 03:40 11,1 C 80 % 1022,8 hPa 0,0 mm 0,0 km/h (0 Bft) NE 45 0 min 0 W/m 7,8 C 11,1 C 0,0 km/h (0 Bft)
23/07/2012 03:50 11,0 C 80 % 1022,8 hPa 0,0 mm 0,0 km/h (0 Bft) NE 45 0 min 0 W/m 7,7 C 11,0 C 0,0 km/h (0 Bft)
23/07/2012 04:00 10,9 C 81 % 1022,7 hPa 0,0 mm 0,0 km/h (0 Bft) E-NE 67 0 min 0 W/m 7,8 C 10,9 C 0,0 km/h (0 Bft)
23/07/2012 04:10 10,9 C 81 % 1022,7 hPa 0,0 mm 0,0 km/h (0 Bft) E-NE 67 0 min 0 W/m 7,8 C 10,9 C 0,0 km/h (0 Bft)
23/07/2012 04:20 10,8 C 81 % 1022,6 hPa 0,0 mm 0,0 km/h (0 Bft) E-NE 67 0 min 0 W/m 7,7 C 10,8 C 0,0 km/h (0 Bft)
23/07/2012 04:30 10,8 C 82 % 1022,5 hPa 0,0 mm 0,0 km/h (0 Bft) N-NE 22 0 min 0 W/m 7,9 C 10,8 C 0,0 km/h (0 Bft)
23/07/2012 04:40 10,6 C 82 % 1022,5 hPa 0,0 mm 0,0 km/h (0 Bft) N-NE 22 0 min 0 W/m 7,7 C 10,6 C 0,0 km/h (0 Bft)
23/07/2012 04:50 10,4 C 83 % 1022,4 hPa 0,0 mm 0,0 km/h (0 Bft) NE 45 0 min 0 W/m 7,6 C 10,4 C 0,0 km/h (0 Bft)
23/07/2012 05:00 10,3 C 83 % 1022,4 hPa 0,0 mm 0,0 km/h (0 Bft) NE 45 0 min 0 W/m 7,5 C 10,3 C 0,0 km/h (0 Bft)
23/07/2012 05:10 10,2 C 83 % 1022,2 hPa 0,0 mm 0,0 km/h (0 Bft) NE 45 0 min 0 W/m 7,4 C 10,2 C 0,0 km/h (0 Bft)
23/07/2012 05:20 10,1 C 83 % 1022,1 hPa 0,0 mm 0,0 km/h (0 Bft) NE 45 0 min 0 W/m 7,3 C 10,1 C 0,0 km/h (0 Bft)
23/07/2012 05:30 9,8 C 83 % 1022,2 hPa 0,0 mm 0,0 km/h (0 Bft) O-SO 247 0 min 0 W/m 7,1 C 9,8 C 0,0 km/h (0 Bft)
23/07/2012 05:40 9,5 C 84 % 1022,1 hPa 0,0 mm 0,0 km/h (0 Bft) O-SO 247 0 min 0 W/m 6,9 C 9,5 C 0,0 km/h (0 Bft)
23/07/2012 05:50 9,3 C 84 % 1022,2 hPa 0,0 mm 0,0 km/h (0 Bft) O-SO 247 0 min 0 W/m 6,7 C 9,3 C 0,0 km/h (0 Bft)
23/07/2012 06:00 9,1 C 84 % 1022,2 hPa 0,0 mm 0,0 km/h (0 Bft) O-SO 247 0 min 0 W/m 6,5 C 9,1 C 0,0 km/h (0 Bft)
23/07/2012 06:10 8,9 C 84 % 1022,1 hPa 0,0 mm 0,0 km/h (0 Bft) O-SO 247 0 min 0 W/m 6,3 C 8,9 C 0,0 km/h (0 Bft)
23/07/2012 06:20 8,8 C 84 % 1022,2 hPa 0,0 mm 0,0 km/h (0 Bft) O-SO 247 0 min 0 W/m 6,2 C 8,8 C 0,0 km/h (0 Bft)
23/07/2012 06:30 8,6 C 85 % 1021,9 hPa 0,0 mm 0,0 km/h (0 Bft) O-SO 247 0 min 0 W/m 6,2 C 8,6 C 0,0 km/h (0 Bft)
23/07/2012 06:40 8,4 C 85 % 1022,0 hPa 0,0 mm 0,0 km/h (0 Bft) O-SO 247 0 min 0 W/m 6,0 C 8,4 C 0,0 km/h (0 Bft)
23/07/2012 06:50 8,4 C 85 % 1022,0 hPa 0,0 mm 0,0 km/h (0 Bft) N-NE 22 0 min 0 W/m 6,0 C 8,4 C 0,0 km/h (0 Bft)
23/07/2012 07:00 8,6 C 86 % 1022,0 hPa 0,0 mm 0,0 km/h (0 Bft) N-NE 22 0 min 0 W/m 6,4 C 8,6 C 0,0 km/h (0 Bft)
23/07/2012 07:10 8,8 C 87 % 1022,0 hPa 0,0 mm 0,0 km/h (0 Bft) N-NE 22 0 min 0 W/m 6,8 C 8,8 C 0,0 km/h (0 Bft)
23/07/2012 07:20 8,9 C 87 % 1021,9 hPa 0,0 mm 0,0 km/h (0 Bft) N-NE 22 0 min 0 W/m 6,9 C 8,9 C 0,0 km/h (0 Bft)
23/07/2012 07:30 9,4 C 87 % 1022,0 hPa 0,0 mm 0,0 km/h (0 Bft) N-NE 22 0 min 0 W/m 7,3 C 9,4 C 0,0 km/h (0 Bft)
23/07/2012 07:40 10,1 C 87 % 1021,9 hPa 0,0 mm 0,0 km/h (0 Bft) N-NE 22 0 min 0 W/m 8,0 C 10,1 C 0,0 km/h (0 Bft)
23/07/2012 07:50 10,8 C 88 % 1021,9 hPa 0,0 mm 0,0 km/h (0 Bft) N-NE 22 0 min 0 W/m 8,9 C 10,8 C 0,0 km/h (0 Bft)
23/07/2012 08:00 11,5 C 88 % 1022,0 hPa 0,0 mm 0,0 km/h (0 Bft) N-NE 22 0 min 0 W/m 9,6 C 11,5 C 0,0 km/h (0 Bft)
23/07/2012 08:10 12,2 C 87 % 1022,0 hPa 0,0 mm 0,0 km/h (0 Bft) N-NE 22 0 min 0 W/m 10,1 C 12,2 C 0,0 km/h (0 Bft)
23/07/2012 08:20 12,9 C 86 % 1021,9 hPa 0,0 mm 0,0 km/h (0 Bft) N-NE 22 0 min 0 W/m 10,6 C 12,9 C 0,0 km/h (0 Bft)
23/07/2012 08:30 13,6 C 84 % 1021,9 hPa 0,0 mm 0,4 km/h (0 Bft) N-NE 22 0 min 0 W/m 10,9 C 13,6 C 3,2 km/h (1 Bft)
23/07/2012 08:40 14,2 C 82 % 1022,0 hPa 0,0 mm 0,0 km/h (0 Bft) N-NE 22 0 min 0 W/m 11,2 C 14,2 C 3,2 km/h (1 Bft)
23/07/2012 08:50 14,8 C 79 % 1021,9 hPa 0,0 mm 0,0 km/h (0 Bft) N-NE 22 0 min 0 W/m 11,2 C 14,8 C 1,4 km/h (1 Bft)
23/07/2012 09:00 15,3 C 78 % 1021,9 hPa 0,0 mm 0,0 km/h (0 Bft) N-NE 22 0 min 0 W/m 11,5 C 15,3 C 0,0 km/h (0 Bft)
23/07/2012 09:10 16,1 C 77 % 1021,8 hPa 0,0 mm 0,0 km/h (0 Bft) N-NE 22 0 min 0 W/m 12,1 C 16,1 C 2,9 km/h (1 Bft)
23/07/2012 09:20 16,8 C 75 % 1022,0 hPa 0,0 mm 1,4 km/h (1 Bft) N-NE 22 0 min 0 W/m 12,3 C 16,8 C 1,4 km/h (1 Bft)
23/07/2012 09:30 17,5 C 73 % 1021,9 hPa 0,0 mm 2,2 km/h (1 Bft) N-NE 22 0 min 0 W/m 12,6 C 17,5 C 4,3 km/h (1 Bft)
23/07/2012 09:40 18,1 C 70 % 1021,8 hPa 0,0 mm 4,3 km/h (1 Bft) N 360 0 min 0 W/m 12,5 C 18,1 C 7,2 km/h (2 Bft)
23/07/2012 09:50 18,8 C 68 % 1021,6 hPa 0,0 mm 5,8 km/h (2 Bft) E-NE 67 0 min 0 W/m 12,8 C 18,8 C 5,8 km/h (2 Bft)
23/07/2012 10:00 19,4 C 63 % 1021,6 hPa 0,0 mm 3,2 km/h (1 Bft) E-NE 67 0 min 0 W/m 12,2 C 19,4 C 4,3 km/h (1 Bft)
23/07/2012 10:10 20,1 C 62 % 1021,6 hPa 0,0 mm 1,8 km/h (1 Bft) N-NE 22 0 min 0 W/m 12,6 C 20,1 C 1,8 km/h (1 Bft)
23/07/2012 10:20 20,6 C 60 % 1021,6 hPa 0,0 mm 7,9 km/h (2 Bft) E-NE 67 0 min 0 W/m 12,6 C 20,6 C 8,6 km/h (2 Bft)
23/07/2012 10:30 21,1 C 59 % 1021,5 hPa 0,0 mm 6,5 km/h (2 Bft) N-NE 22 0 min 0 W/m 12,8 C 21,1 C 13,7 km/h (3 Bft)
23/07/2012 10:40 21,4 C 55 % 1021,6 hPa 0,0 mm 7,6 km/h (2 Bft) E-NE 67 0 min 0 W/m 12,0 C 21,4 C 9,7 km/h (2 Bft)
23/07/2012 10:50 21,8 C 55 % 1021,5 hPa 0,0 mm 1,1 km/h (1 Bft) E-NE 67 0 min 0 W/m 12,4 C 21,8 C 3,6 km/h (1 Bft)
23/07/2012 11:00 22,3 C 54 % 1021,5 hPa 0,0 mm 4,0 km/h (1 Bft) NE 45 0 min 0 W/m 12,5 C 22,3 C 6,8 km/h (2 Bft)
23/07/2012 11:10 22,5 C 51 % 1021,5 hPa 0,0 mm 11,9 km/h (2 Bft) E-NE 67 0 min 0 W/m 11,8 C 22,5 C 19,4 km/h (3 Bft)
23/07/2012 11:20 22,6 C 50 % 1021,3 hPa 0,0 mm 5,0 km/h (1 Bft) E-NE 67 0 min 0 W/m 11,6 C 22,6 C 9,0 km/h (2 Bft)
23/07/2012 11:30 22,8 C 50 % 1021,2 hPa 0,0 mm 5,0 km/h (1 Bft) N 360 0 min 0 W/m 11,8 C 22,8 C 5,0 km/h (1 Bft)
23/07/2012 11:40 23,3 C 47 % 1021,2 hPa 0,0 mm 7,2 km/h (2 Bft) N 360 0 min 0 W/m 11,3 C 23,3 C 13,0 km/h (3 Bft)
23/07/2012 11:50 23,4 C 45 % 1021,1 hPa 0,0 mm 11,5 km/h (2 Bft) N-NE 22 0 min 0 W/m 10,8 C 23,4 C 11,5 km/h (2 Bft)
23/07/2012 12:00 23,2 C 47 % 1021,0 hPa 0,0 mm 10,1 km/h (2 Bft) S-SE 157 0 min 0 W/m 11,3 C 23,2 C 13,3 km/h (3 Bft)
23/07/2012 12:10 23,6 C 46 % 1020,9 hPa 0,0 mm 6,5 km/h (2 Bft) N-NO 337 0 min 0 W/m 11,3 C 23,6 C 12,2 km/h (2 Bft)
23/07/2012 12:20 23,6 C 46 % 1020,9 hPa 0,0 mm 4,0 km/h (1 Bft) E-NE 67 0 min 0 W/m 11,3 C 23,6 C 4,0 km/h (1 Bft)
23/07/2012 12:30 23,9 C 45 % 1020,8 hPa 0,0 mm 5,4 km/h (2 Bft) SE 135 0 min 0 W/m 11,2 C 23,9 C 8,6 km/h (2 Bft)
23/07/2012 12:40 24,0 C 45 % 1020,8 hPa 0,0 mm 7,9 km/h (2 Bft) NE 45 0 min 0 W/m 11,3 C 24,0 C 10,4 km/h (2 Bft)
23/07/2012 12:50 24,3 C 43 % 1020,8 hPa 0,0 mm 9,4 km/h (2 Bft) NE 45 0 min 0 W/m 10,9 C 24,3 C 18,0 km/h (3 Bft)
23/07/2012 13:00 24,3 C 41 % 1020,7 hPa 0,0 mm 9,7 km/h (2 Bft) N-NE 22 0 min 0 W/m 10,2 C 24,3 C 10,4 km/h (2 Bft)
23/07/2012 13:10 24,2 C 41 % 1020,5 hPa 0,0 mm 12,6 km/h (3 Bft) N 360 0 min 0 W/m 10,1 C 24,2 C 18,4 km/h (3 Bft)
23/07/2012 13:20 24,2 C 40 % 1020,3 hPa 0,0 mm 10,4 km/h (2 Bft) N-NE 22 0 min 0 W/m 9,7 C 24,2 C 14,8 km/h (3 Bft)
23/07/2012 13:30 24,3 C 41 % 1020,1 hPa 0,0 mm 9,4 km/h (2 Bft) NE 45 0 min 0 W/m 10,2 C 24,3 C 14,4 km/h (3 Bft)
23/07/2012 13:40 24,6 C 38 % 1020,2 hPa 0,0 mm 7,6 km/h (2 Bft) E 90 0 min 0 W/m 9,3 C 24,6 C 12,6 km/h (3 Bft)
23/07/2012 13:50 24,8 C 39 % 1020,1 hPa 0,0 mm 6,1 km/h (2 Bft) E-NE 67 0 min 0 W/m 9,9 C 24,8 C 6,5 km/h (2 Bft)
23/07/2012 14:00 24,8 C 38 % 1019,9 hPa 0,0 mm 11,9 km/h (2 Bft) N-NE 22 0 min 0 W/m 9,5 C 24,8 C 16,2 km/h (3 Bft)
23/07/2012 14:10 24,9 C 38 % 1019,8 hPa 0,0 mm 10,4 km/h (2 Bft) NE 45 0 min 0 W/m 9,6 C 24,9 C 11,9 km/h (2 Bft)
23/07/2012 14:20 25,0 C 39 % 1019,7 hPa 0,0 mm 7,2 km/h (2 Bft) NE 45 0 min 0 W/m 10,1 C 25,0 C 9,7 km/h (2 Bft)
23/07/2012 14:30 25,0 C 38 % 1019,8 hPa 0,0 mm 2,2 km/h (1 Bft) N-NE 22 0 min 0 W/m 9,7 C 25,0 C 2,2 km/h (1 Bft)
23/07/2012 14:40 24,9 C 38 % 1019,6 hPa 0,0 mm 2,5 km/h (1 Bft) NE 45 0 min 0 W/m 9,6 C 24,9 C 4,0 km/h (1 Bft)
23/07/2012 14:50 25,3 C 38 % 1019,5 hPa 0,0 mm 8,6 km/h (2 Bft) N 360 0 min 0 W/m 9,9 C 25,3 C 15,5 km/h (3 Bft)
23/07/2012 15:00 25,3 C 36 % 1019,4 hPa 0,0 mm 5,0 km/h (1 Bft) NE 45 0 min 0 W/m 9,1 C 25,3 C 9,0 km/h (2 Bft)
23/07/2012 15:10 25,3 C 37 % 1019,3 hPa 0,0 mm 12,6 km/h (3 Bft) N-NE 22 0 min 0 W/m 9,6 C 25,3 C 15,1 km/h (3 Bft)
23/07/2012 15:20 25,4 C 37 % 1019,2 hPa 0,0 mm 8,3 km/h (2 Bft) NE 45 0 min 0 W/m 9,6 C 25,4 C 12,2 km/h (2 Bft)
23/07/2012 15:30 25,6 C 36 % 1019,0 hPa 0,0 mm 13,7 km/h (3 Bft) N-NE 22 0 min 0 W/m 9,4 C 25,6 C 22,7 km/h (4 Bft)
23/07/2012 15:40 25,8 C 36 % 1018,9 hPa 0,0 mm 7,9 km/h (2 Bft) E-NE 67 0 min 0 W/m 9,6 C 25,8 C 9,7 km/h (2 Bft)
23/07/2012 15:50 25,9 C 35 % 1018,8 hPa 0,0 mm 7,6 km/h (2 Bft) N-NE 22 0 min 0 W/m 9,3 C 25,9 C 10,8 km/h (2 Bft)
23/07/2012 16:00 25,9 C 34 % 1018,7 hPa 0,0 mm 5,0 km/h (1 Bft) NE 45 0 min 0 W/m 8,8 C 25,9 C 9,4 km/h (2 Bft)
23/07/2012 16:10 26,1 C 33 % 1018,5 hPa 0,0 mm 9,7 km/h (2 Bft) NE 45 0 min 0 W/m 8,6 C 26,1 C 9,7 km/h (2 Bft)
23/07/2012 16:20 26,1 C 34 % 1018,5 hPa 0,0 mm 10,4 km/h (2 Bft) N-NE 22 0 min 0 W/m 9,0 C 26,1 C 15,5 km/h (3 Bft)
23/07/2012 16:30 26,2 C 33 % 1018,5 hPa 0,0 mm 5,0 km/h (1 Bft) E-NE 67 0 min 0 W/m 8,6 C 26,2 C 7,2 km/h (2 Bft)
23/07/2012 16:40 26,2 C 33 % 1018,3 hPa 0,0 mm 11,5 km/h (2 Bft) E-SE 112 0 min 0 W/m 8,6 C 26,2 C 13,3 km/h (3 Bft)
23/07/2012 16:50 26,2 C 33 % 1018,3 hPa 0,0 mm 10,8 km/h (2 Bft) N-NO 337 0 min 0 W/m 8,6 C 26,2 C 13,3 km/h (3 Bft)
23/07/2012 17:00 26,3 C 33 % 1018,0 hPa 0,0 mm 7,6 km/h (2 Bft) NE 45 0 min 0 W/m 8,7 C 26,3 C 8,6 km/h (2 Bft)
23/07/2012 17:10 26,4 C 33 % 1018,0 hPa 0,0 mm 11,2 km/h (2 Bft) NE 45 0 min 0 W/m 8,8 C 26,4 C 13,3 km/h (3 Bft)
23/07/2012 17:20 26,4 C 33 % 1017,9 hPa 0,0 mm 5,8 km/h (2 Bft) N-NE 22 0 min 0 W/m 8,8 C 26,4 C 10,1 km/h (2 Bft)
23/07/2012 17:30 26,5 C 33 % 1017,9 hPa 0,0 mm 11,2 km/h (2 Bft) E 90 0 min 0 W/m 8,9 C 26,5 C 14,0 km/h (3 Bft)
23/07/2012 17:40 26,4 C 33 % 1017,8 hPa 0,0 mm 11,2 km/h (2 Bft) N-NE 22 0 min 0 W/m 8,8 C 26,4 C 21,6 km/h (4 Bft)
23/07/2012 17:50 26,4 C 33 % 1017,7 hPa 0,0 mm 7,2 km/h (2 Bft) N-NE 22 0 min 0 W/m 8,8 C 26,4 C 8,6 km/h (2 Bft)
23/07/2012 18:00 26,4 C 31 % 1017,7 hPa 0,0 mm 10,4 km/h (2 Bft) NE 45 0 min 0 W/m 7,9 C 26,4 C 15,1 km/h (3 Bft)
23/07/2012 18:10 26,4 C 32 % 1017,5 hPa 0,0 mm 8,3 km/h (2 Bft) N-NE 22 0 min 0 W/m 8,4 C 26,4 C 8,3 km/h (2 Bft)
23/07/2012 18:20 26,4 C 31 % 1017,5 hPa 0,0 mm 8,3 km/h (2 Bft) N 360 0 min 0 W/m 7,9 C 26,4 C 10,4 km/h (2 Bft)
23/07/2012 18:30 26,4 C 31 % 1017,4 hPa 0,0 mm 7,2 km/h (2 Bft) E-NE 67 0 min 0 W/m 7,9 C 26,4 C 12,2 km/h (2 Bft)
23/07/2012 18:40 26,4 C 31 % 1017,2 hPa 0,0 mm 5,4 km/h (2 Bft) E-NE 67 0 min 0 W/m 7,9 C 26,4 C 9,7 km/h (2 Bft)
23/07/2012 18:50 26,3 C 31 % 1017,2 hPa 0,0 mm 4,7 km/h (1 Bft) SE 135 0 min 0 W/m 7,8 C 26,3 C 4,7 km/h (1 Bft)
23/07/2012 19:00 26,4 C 33 % 1017,2 hPa 0,0 mm 1,4 km/h (1 Bft) NE 45 0 min 0 W/m 8,8 C 26,4 C 4,3 km/h (1 Bft)
23/07/2012 19:10 26,3 C 33 % 1017,3 hPa 0,0 mm 2,5 km/h (1 Bft) NE 45 0 min 0 W/m 8,7 C 26,3 C 6,5 km/h (2 Bft)
23/07/2012 19:20 26,3 C 33 % 1017,2 hPa 0,0 mm 5,8 km/h (2 Bft) N-NE 22 0 min 0 W/m 8,7 C 26,3 C 7,9 km/h (2 Bft)
23/07/2012 19:30 26,3 C 34 % 1017,1 hPa 0,0 mm 8,3 km/h (2 Bft) N-NE 22 0 min 0 W/m 9,2 C 26,3 C 9,0 km/h (2 Bft)
23/07/2012 19:40 26,2 C 34 % 1017,0 hPa 0,0 mm 6,1 km/h (2 Bft) N-NE 22 0 min 0 W/m 9,1 C 26,2 C 9,4 km/h (2 Bft)
23/07/2012 19:50 26,2 C 34 % 1017,1 hPa 0,0 mm 4,0 km/h (1 Bft) NE 45 0 min 0 W/m 9,1 C 26,2 C 8,3 km/h (2 Bft)
23/07/2012 20:00 26,0 C 34 % 1017,2 hPa 0,0 mm 9,0 km/h (2 Bft) N-NE 22 0 min 0 W/m 8,9 C 26,0 C 9,0 km/h (2 Bft)
23/07/2012 20:10 25,6 C 35 % 1017,1 hPa 0,0 mm 4,0 km/h (1 Bft) E-NE 67 0 min 0 W/m 9,0 C 25,6 C 4,0 km/h (1 Bft)
23/07/2012 20:20 25,1 C 36 % 1017,2 hPa 0,0 mm 3,2 km/h (1 Bft) NE 45 0 min 0 W/m 9,0 C 25,1 C 10,8 km/h (2 Bft)
23/07/2012 20:30 24,4 C 36 % 1017,2 hPa 0,0 mm 1,4 km/h (1 Bft) E-NE 67 0 min 0 W/m 8,4 C 24,4 C 1,4 km/h (1 Bft)
23/07/2012 20:40 23,9 C 38 % 1017,2 hPa 0,0 mm 1,1 km/h (1 Bft) NE 45 0 min 0 W/m 8,7 C 23,9 C 4,0 km/h (1 Bft)
23/07/2012 20:50 23,3 C 39 % 1017,1 hPa 0,0 mm 1,1 km/h (1 Bft) E-NE 67 0 min 0 W/m 8,6 C 23,3 C 3,6 km/h (1 Bft)
23/07/2012 21:00 22,8 C 41 % 1017,0 hPa 0,0 mm 1,8 km/h (1 Bft) E-NE 67 0 min 0 W/m 8,9 C 22,8 C 3,6 km/h (1 Bft)
23/07/2012 21:10 22,3 C 42 % 1016,8 hPa 0,0 mm 0,0 km/h (0 Bft) N-NE 22 0 min 0 W/m 8,8 C 22,3 C 0,0 km/h (0 Bft)
23/07/2012 21:20 21,8 C 43 % 1016,9 hPa 0,0 mm 0,0 km/h (0 Bft) N-NE 22 0 min 0 W/m 8,7 C 21,8 C 3,2 km/h (1 Bft)
23/07/2012 21:30 21,3 C 44 % 1016,9 hPa 0,0 mm 0,4 km/h (0 Bft) NE 45 0 min 0 W/m 8,5 C 21,3 C 3,2 km/h (1 Bft)
23/07/2012 21:40 20,8 C 45 % 1017,0 hPa 0,0 mm 0,0 km/h (0 Bft) NE 45 0 min 0 W/m 8,4 C 20,8 C 0,0 km/h (0 Bft)
23/07/2012 21:50 20,2 C 46 % 1017,0 hPa 0,0 mm 0,0 km/h (0 Bft) NE 45 0 min 0 W/m 8,2 C 20,2 C 0,0 km/h (0 Bft)
23/07/2012 22:00 19,5 C 48 % 1017,1 hPa 0,0 mm 0,0 km/h (0 Bft) NE 45 0 min 0 W/m 8,2 C 19,5 C 0,0 km/h (0 Bft)
23/07/2012 22:10 18,8 C 50 % 1017,2 hPa 0,0 mm 0,0 km/h (0 Bft) NE 45 0 min 0 W/m 8,2 C 18,8 C 0,0 km/h (0 Bft)
23/07/2012 22:20 18,2 C 52 % 1017,4 hPa 0,0 mm 0,0 km/h (0 Bft) NO 315 0 min 0 W/m 8,2 C 18,2 C 0,0 km/h (0 Bft)
23/07/2012 22:30 17,6 C 54 % 1017,3 hPa 0,0 mm 0,0 km/h (0 Bft) NO 315 0 min 0 W/m 8,2 C 17,6 C 0,0 km/h (0 Bft)
23/07/2012 22:40 17,0 C 55 % 1017,3 hPa 0,0 mm 0,0 km/h (0 Bft) N-NO 337 0 min 0 W/m 7,9 C 17,0 C 0,0 km/h (0 Bft)
23/07/2012 22:50 16,5 C 56 % 1017,2 hPa 0,0 mm 0,0 km/h (0 Bft) N-NO 337 0 min 0 W/m 7,7 C 16,5 C 0,0 km/h (0 Bft)
23/07/2012 23:00 16,1 C 57 % 1017,2 hPa 0,0 mm 0,0 km/h (0 Bft) NO 315 0 min 0 W/m 7,6 C 16,1 C 0,0 km/h (0 Bft)
23/07/2012 23:10 15,8 C 59 % 1017,2 hPa 0,0 mm 0,0 km/h (0 Bft) N-NO 337 0 min 0 W/m 7,8 C 15,8 C 0,0 km/h (0 Bft)
23/07/2012 23:20 15,4 C 59 % 1017,1 hPa 0,0 mm 0,0 km/h (0 Bft) N-NE 22 0 min 0 W/m 7,4 C 15,4 C 0,0 km/h (0 Bft)
23/07/2012 23:30 15,4 C 60 % 1017,1 hPa 0,0 mm 0,4 km/h (0 Bft) N-NE 22 0 min 0 W/m 7,7 C 15,4 C 4,0 km/h (1 Bft)
23/07/2012 23:40 15,3 C 61 % 1017,0 hPa 0,0 mm 0,0 km/h (0 Bft) NE 45 0 min 0 W/m 7,8 C 15,3 C 0,0 km/h (0 Bft)
23/07/2012 23:50 15,1 C 61 % 1017,0 hPa 0,0 mm 0,0 km/h (0 Bft) N-NE 22 0 min 0 W/m 7,6 C 15,1 C 0,0 km/h (0 Bft)
_ Min-Heure 06:50 18:50 21:10 - 23:50 - - - - 06:50 06:50 23:50
Minimum _ 8,4 C 31 % 1016,8 hPa - 0,0 km/h (0 Bft) - - - - 6,0 C 8,4 C 0,0 km/h (0 Bft)
_ Max-Heure 17:30 08:00 00:30 23:50 15:30 - - 23:50 23:50 10:30 17:30 15:30
Maximum _ 26,5 C 88 % 1023,7 hPa 0,0 mm 13,7 km/h
N-NE (3 Bft)
- - 0 min 0 W/m 12,8 C 26,5 C 22,7 km/h
N-NE (4 Bft)
Moyenne _ 18,7 C 58 % 1020,3 hPa #0,0 mm 3,4 km/h (1 Bft) N-NE - #0 min. 0 W/m 9,1 C 18,7 C 5,2 km/h (1 Bft)
Saint Bonnet de Bellac- Haute Vienne - France